Regional & State Weather Roundups


142 
ASUS42 KTBW 261218
RWRFL 
FLORIDA REGIONAL WEATHER ROUNDUP
NATIONAL WEATHER SERVICE TAMPA BAY RUSKIN FL
800 AM EDT TUE SEP 26 2017
NOTE: "FAIR" INDICATES FEW OR NO CLOUDS BELOW 12,000 FEET WITH NO
SIGNIFICANT WEATHER AND/OR OBSTRUCTIONS TO VISIBILITY.
FLZ001>010-012>015-112-114-115-261300-
PANHANDLE FLORIDA
  
CITY           SKY/WX    TMP DP  RH WIND       PRES   REMARKS
PENSACOLA      CLEAR     75  72  90 N3        29.94R                  
PENSACOLA NAS  MOCLDY    73  71  93 N3        29.93R                  
MILTON NAS     PTCLDY    69  69 100 CALM      29.95                   
CRESTVIEW      CLEAR     68  66  93 CALM      29.96R FOG              
DUKE FIELD     FAIR      69  67  96 CALM      29.95R                  
VALPARAISO     PTCLDY    72  69  92 N3        29.93R                  
MARY ESTHER    CLEAR     71  71  99 N5        29.93R                  
PANAMA CITY    FAIR      71  69  93 CALM      29.92R                  
TYNDALL AFB    CLEAR     73  73 100 CALM      29.93R FOG              
APALACHICOLA   CLEAR     72  72 100 NE3       29.92R                  
STATION/POSITION SKY/WX   TEMP    WIND        PRES    WAVE   SWELL
                          AIR SEA DIR/SP/G            HT/PER HT/PER
                          (F)     (DEG/KT/KT) (MB)    (FT/S) (FT/S)
30.1N   87.6W              80 82  100/  4/  4 1013.0R   1/ 5   2/ 5
29.2N   88.2W              82 83  190/  4/  6 1012.9
28.8N   86.0W              80 82   CALM  /  2 1012.2    1/ 4
PANAMA CITY BEAC           73      30/  5/  6 1013.9R
TOWER C                    80      30/  8/  9 1013.7R
28.5N   84.5W              80 82   10/  6/  8 1012.6R   1
$$
FLZ011-016>038-118-127-128-134-139-239-261300-
NORTH FLORIDA
  
CITY           SKY/WX    TMP DP  RH WIND       PRES   REMARKS
MARIANNA       CLEAR     68  67  96 CALM      29.94R                  
TALLAHASSEE    CLEAR     70  69  97 CALM      29.93R                  
PERRY          CLEAR     69  67  95 CALM      29.93S FOG              
LIVE OAK       CLEAR     66  66 100 CALM      29.94S                  
CROSS CITY     CLEAR     70  69  98 CALM      29.97R                  
LAKE CITY      FAIR      61  61 100 CALM      29.93S FOG              
GAINESVILLE    CLEAR     68  67  96 CALM      29.95R                  
WILLISTON      CLEAR     70  70 100 CALM      29.93R FOG              
PALATKA        FAIR      68  68 100 CALM      29.93R FOG              
MAYPORT NAS    MOCLDY    74  73  97 W5        29.91R                  
JACKSONVILLE   MOCLDY    70  70 100 CALM      29.91R                  
JAX NAS        MOCLDY    73  70  90 CALM      29.92R                  
JAX CECIL      CLEAR     66  66 100 CALM      29.92R                  
FERNANDINA BEA FAIR      72  70  94 MISG      29.90S                  
ST AUGUSTINE   CLEAR     72  71  97 W5        29.93R                  
PALM COAST     CLEAR    N/A N/A N/A CALM      29.92R                  
STATION/POSITION SKY/WX   TEMP    WIND        PRES    WAVE   SWELL
                          AIR SEA DIR/SP/G            HT/PER HT/PER
                          (F)     (DEG/KT/KT) (MB)    (FT/S) (FT/S)
SHELL POINT      NOT AVBL
KEATON BEACH               72      70/  6/  7 1012.8R
CEDAR KEY                  79     100/  7/  8 1013.5R
FERNANDINA                 74 82  270/  4/  5 1013.8R
30.7N   81.3W                 81                N/A     4/13   2/13
MAYPORT                    74 82  310/  4/  5 1013.2R
31.4N   80.9W              76 80  330/ 10/ 12 1012.2R   4/12   3/12
ST AUGUSTINE               74 81  300/  4/  5 1013.1R
$$
FLZ040-043>046-052-053-057-058-063-144-261300-
INTERIOR CENTRAL FLORIDA
  
CITY           SKY/WX    TMP DP  RH WIND       PRES   REMARKS
OCALA          PTCLDY    69  69 100 CALM      29.94R                  
THE VILLAGES     N/A     73  73 100 CALM      29.84R                  
LEESBURG       CLEAR     75  74  96 N3        29.94R                  
SANFORD        PTCLDY    73  71  93 W3        29.92R                  
ORLANDO EXEC   CLEAR     76  74  93 CALM      29.92R                  
ORLANDO INTL   PTCLDY    74  73  97 CALM      29.92R                  
KISSIMMEE      CLEAR     77  73  87 CALM      29.93R                  
WINTER HAVEN   CLEAR     75  72  90 NE3       29.93R                  
LAKELAND       CLEAR     75  73  94 CALM      29.93R                  
BARTOW         CLEAR    N/A N/A N/A MISG        N/A                   
SEBRING        FAIR      77  74  91 CALM      29.91R                  
OKEECHOBEE     CLOUDY    75  73  94 CALM      29.91R                  
$$
FLZ041-047-054-059-064-141-147-261300-
EAST CENTRAL FLORIDA
  
CITY           SKY/WX    TMP DP  RH WIND       PRES   REMARKS
ORMOND BEACH   CLEAR     72  72 100 CALM      29.92R                  
DAYTONA BEACH  PTCLDY    73  72  96 SW3       29.92R                  
DELAND         PTCLDY    73  72  94 CALM      29.92R                  
NEW SMYRNA BEA CLEAR     72  70  94 CALM      29.93R                  
JFK SPACE CTR  CLEAR     74  74  97 NW3       29.90R                  
TITUSVILLE     PTCLDY    75  73  94 W6        29.92R                  
CAPE CANAVERAL CLEAR     76  73  91 NW3       29.90R                  
PATRICK AFB    PTCLDY    78  74  87 NW8       29.90R                  
MELBOURNE      PTCLDY    77  74  90 NW5       29.90R                  
VERO BEACH     MOCLDY    76  74  93 N3        29.90R                  
FT PIERCE      CLOUDY    78  74  87 CALM      29.91R                  
STUART         CLOUDY    82  79  89 NE5       29.92R                  
STATION/POSITION SKY/WX   TEMP    WIND        PRES    WAVE   SWELL
                          AIR SEA DIR/SP/G            HT/PER HT/PER
                          (F)     (DEG/KT/KT) (MB)    (FT/S) (FT/S)
28.5N   80.2W              81 84  310/  8/ 10 1013.7R   7/12   7/12
28.9N   78.5W                     310/ 12/ 14 1011.2R   8/11   7/11
TRIDENT PIER               78 83  300/  4/  5 1014.3R
28.4N   80.5W                 83                N/A     3/12   2/12
27.5N   80.2W                 83                N/A     6/11   5/11
$$
FLZ050-056-061-142-242-148-248-149-249-151-251-155-255-
160-260-261300-
WEST CENTRAL FLORIDA
  
CITY           SKY/WX    TMP DP  RH WIND       PRES   REMARKS
CRYSTAL RIVER  FAIR      72  70  94 CALM      29.93R                  
INVERNESS      FAIR      70  70 100 CALM      29.93R FOG              
BROOKSVILLE    CLEAR     71  70  96 CALM      29.93R                  
CLEARWATER AIR FAIR      75  73  94 CALM      29.91R                  
ST PETE CLEARW CLEAR     78  74  87 CALM      29.91R                  
TAMPA INTL     PTCLDY    79  73  82 CALM      29.92R                  
TAMPA EXEC     CLEAR     72  72 100 CALM      29.92R FOG              
PLANT CITY     CLEAR     73  72  94 CALM      29.94R                  
MACDILL AFB    CLEAR     74  74 100 CALM      29.91R                  
PETER O KNIGHT CLOUDY    73  73 100 E3        29.92R                  
ST PETERSBURG  CLEAR     81  75  82 N3        29.89R                  
SARASOTA       CLEAR     72  72 100 NE3       29.90R                  
VENICE         FAIR      77  73  88 NE5       29.91R                  
STATION/POSITION SKY/WX   TEMP    WIND        PRES    WAVE   SWELL
                          AIR SEA DIR/SP/G            HT/PER HT/PER
                          (F)     (DEG/KT/KT) (MB)    (FT/S) (FT/S)
27.3N   84.2W                 83                N/A     1
CLEARWATER BEACH           80 85   70/  3/  3 1013.0R
MIDDLE TAMPA BAY           80     120/  6/  7 1012.8R
VENICE                     78 85   20/  6/  8 1012.3R
$$
FLZ066-069-070-075>078-162-262-165-265-261300-
SOUTHWEST FLORIDA AND KEYS
  
CITY           SKY/WX    TMP DP  RH WIND       PRES   REMARKS
PUNTA GORDA    MOCLDY    76  75  97 NE5       29.92R FOG              
FT MYERS       PTCLDY    78  75  90 CALM      29.90R                  
SOUTHWEST INTL PTCLDY    78  73  84 CALM      29.91R                  
NAPLES         CLOUDY    77  75  93 SE9       29.92R                  
IMMOKALEE      MOCLDY    77  75  94 S3        29.93R                  
MARATHON       PTCLDY    81  74  79 N7        29.89R                  
KEY WEST NAS   CLOUDY    91  78  65 SW5       29.89R HX 106           
KEY WEST INTL  CLOUDY    83  77  82 N3        29.90R                  
STATION/POSITION SKY/WX   TEMP    WIND        PRES    WAVE   SWELL
                          AIR SEA DIR/SP/G            HT/PER HT/PER
                          (F)     (DEG/KT/KT) (MB)    (FT/S) (FT/S)
NAPLES                        87  100/  6/  9 1013.0R
DRY TORTUGAS               84      20/  2/  3 1012.6R
SAND KEY                   82                 1012.9R
MOLASSES REEF              80 85  360/  8/  9 1012.9R
$$
FLZ067-068-071>074-168-172>174-261300-
SOUTHEAST FLORIDA 
  
CITY           SKY/WX    TMP DP  RH WIND       PRES   REMARKS
W PALM BEACH   CLOUDY    79  76  90 SW5       29.91R                  
BOCA RATON     RAIN     N/A N/A N/A SW7       29.93R                  
FT LAUDER-EXEC HVY RAIN  73  73 100 VRB3      29.97R VSB 1            
FT LAUDERDALE  TSTM      79  78  97 NW3       29.94R FOG              
POMPANO BEACH  RAIN      74  72  93 SW15      29.95R FOG              
PEMBROKE PINES RAIN      75  74  96 NW8       29.96R                  
OPA LOCKA      RAIN      74  73  97 NW8       29.94R                  
MIAMI          LGT RAIN  76  76 100 NW7       29.93R                  
WEST KENDALL   CLOUDY    75  74  96 N6        29.93R                  
HOMESTEAD      CLOUDY    77  77 100 NW8       29.91R                  
STATION/POSITION SKY/WX   TEMP    WIND        PRES    WAVE   SWELL
                          AIR SEA DIR/SP/G            HT/PER HT/PER
                          (F)     (DEG/KT/KT) (MB)    (FT/S) (FT/S)
PORT EVERGLADES            75     190/ 13/ 19 1013.0
VIRGINIA KEY               77 85  280/  4/  8 1012.3F
LAKE WORTH                 80 85  230/  4/  4 1013.9R
FOWEY ROCKS                79 85  290/ 12/ 13 1013.4R
SETTLEMENT POINT           83     290/  8/  9 1012.6R
$$
  

145 
NZUS99 KTBW 261218
RWRTBW
Regional Weather Roundup National Weather Service Ruskin Florida
800 AM EDT TUE SEP 26 2017
  
CITY           SKY/WX    TMP DP  RH WIND       PRES   REMARKS
Cross City     CLEAR     70  69  98 CALM      29.97R                  
Gainesville    CLEAR     68  67  96 CALM      29.95R                  
Ocala          PTCLDY    69  69 100 CALM      29.94R                  
The Villages     N/A     73  73 100 CALM      29.84R                  
Crystal River  FAIR      72  70  94 CALM      29.93R                  
Inverness      FAIR      70  70 100 CALM      29.93R FOG              
Leesburg       CLEAR     75  74  96 N3        29.94R                  
Orlando        PTCLDY    74  73  97 CALM      29.92R                  
Brooksville    CLEAR     71  70  96 CALM      29.93R                  
Zephyrhills      N/A     73  72  99 CALM      29.94R                  
Lakeland       CLEAR     75  73  94 CALM      29.93R                  
Winter Haven   CLEAR     75  72  90 NE3       29.93R                  
Bartow         CLEAR    N/A N/A N/A MISG        N/A                   
CITY           SKY/WX    TMP DP  RH WIND       PRES   REMARKS
Tampa Intl     PTCLDY    79  73  82 CALM      29.92R                  
Tampa Exec     CLEAR     72  72 100 CALM      29.92R FOG              
MacDill AFB    CLEAR     74  74 100 CALM      29.91R                  
Peter O Knight CLOUDY    73  73 100 E3        29.92R                  
Plant City     CLEAR     73  72  94 CALM      29.94R                  
Clearwater     CLEAR     78  74  87 CALM      29.91R                  
St Petersburg  CLEAR     81  75  82 N3        29.89R                  
Sarasota       CLEAR     72  72 100 NE3       29.90R                  
Punta Gorda    MOCLDY    76  75  97 NE5       29.92R FOG              
Ft Myers       PTCLDY    78  75  90 CALM      29.90R                  
Ft Myers-RSW   PTCLDY    78  73  84 CALM      29.91R                  
Naples         CLOUDY    77  75  93 SE9       29.92R                  
STATION/POSITION SKY/WX   TEMP WIND        PRES    VSBY
                          AIR  DIR/SP/G
                          (F)  (DEG/KT/KT) (MB)    (MI)
Keaton Beach               72   70/  6/  7 1012.8R
Sand Key                   82              1012.9R
039 Panama City            80   CALM  /  2 1012.2
036 Bayport                80   10/  6/  8 1012.6R
Venice                     78   50/  4/  6 1012.8R
Cedar Key                  79  100/  7/  8 1013.5R
CITY           SKY/WX    TMP DP  RH WIND       PRES   REMARKS
Tallahassee    CLEAR     70  69  97 CALM      29.93R                  
Daytona Beach  PTCLDY    73  72  96 SW3       29.92R                  
Melbourne      PTCLDY    77  74  90 NW5       29.90R                  
W Palm Beach   CLOUDY    79  76  90 SW5       29.91R                  
Miami          LGT RAIN  76  76 100 NW7       29.93R                  
Key West       CLOUDY    83  77  82 N3        29.90R                  
Cancun, MX     PTCLDY    82  77  83 E9        29.82R                  
  

146 
NZUS99 KTBW 261218
RWRTPA
FLORIDA REGIONAL WEATHER ROUNDUP
NATIONAL WEATHER SERVICE TAMPA BAY RUSKIN FL
800 AM EDT TUE SEP 26 2017
NOTE: "FAIR" INDICATES FEW OR NO CLOUDS BELOW 12,000 FEET WITH NO
SIGNIFICANT WEATHER AND/OR OBSTRUCTIONS TO VISIBILITY.
  
STATION/POSITION
FLZ042-048>051-055-056-060-061-261300-
EXTRA STATIONS
  
CITY           SKY/WX    TMP DP  RH WIND       PRES   REMARKS
Everglades Cty NOT AVBL                                               
CRYSTAL RIVER  FAIR      72  70  94 CALM      29.93R                  
SEBRING        FAIR      77  74  91 CALM      29.91R                  
EGLIN AFB      FAIR      69  67  96 CALM      29.95R                  
CANAVERAL      CLEAR     76  73  91 NW3       29.90R                  
$$
FLZ001>010-012>015-261300-
PANHANDLE FLORIDA
  
CITY           SKY/WX    TMP DP  RH WIND       PRES   REMARKS
PENSACOLA      CLEAR     75  72  90 N3        29.94R                  
PENSACOLA NAS  MOCLDY    73  71  93 N3        29.93R                  
MILTON NAS     PTCLDY    69  69 100 CALM      29.95                   
CRESTVIEW      CLEAR     68  66  93 CALM      29.96R FOG              
VALPARAISO     PTCLDY    72  69  92 N3        29.93R                  
MARY ESTHER    CLEAR     71  71  99 N5        29.93R                  
PANAMA CITY    FAIR      71  69  93 CALM      29.92R                  
TYNDALL AFB    CLEAR     73  73 100 CALM      29.93R FOG              
APALACHICOLA   CLEAR     72  72 100 NE3       29.92R                  
STATION/POSITION
29.2N   88.2W
28.8N   86.0W
28.5N   84.5W
$$
FLZ011-016>039-261300-
NORTH FLORIDA
  
CITY           SKY/WX    TMP DP  RH WIND       PRES   REMARKS
MARIANNA       CLEAR     68  67  96 CALM      29.94R                  
TALLAHASSEE    CLEAR     70  69  97 CALM      29.93R                  
PERRY          CLEAR     69  67  95 CALM      29.93S FOG              
CROSS CITY     CLEAR     70  69  98 CALM      29.97R                  
GAINESVILLE    CLEAR     68  67  96 CALM      29.95R                  
MAYPORT NAS    MOCLDY    74  73  97 W5        29.91R                  
JACKSONVILLE   MOCLDY    70  70 100 CALM      29.91R                  
JAX NAS        MOCLDY    73  70  90 CALM      29.92R                  
JAX CRAIG      CLEAR     72  71  97 NW6       29.92R                  
ST AUGUSTINE   CLEAR     72  71  97 W5        29.93R                  
STATION/POSITION
KEATON BEACH
31.4N   80.9W
ST AUGUSTINE
$$
FLZ040-043>046-052-053-057-058-063-261300-
CENTRAL FLORIDA
  
CITY           SKY/WX    TMP DP  RH WIND       PRES   REMARKS
OCALA          PTCLDY    69  69 100 CALM      29.94R                  
LEESBURG       CLEAR     75  74  96 N3        29.94R                  
SANFORD        PTCLDY    73  71  93 W3        29.92R                  
ORLANDO EXEC   CLEAR     76  74  93 CALM      29.92R                  
ORLANDO INTL   PTCLDY    74  73  97 CALM      29.92R                  
KISSIMMEE      CLEAR     77  73  87 CALM      29.93R                  
WINTER HAVEN   CLEAR     75  72  90 NE3       29.93R                  
LAKELAND       CLEAR     75  73  94 CALM      29.93R                  
BARTOW         CLEAR    N/A N/A N/A MISG        N/A                   
$$
FLZ041-047-054-059-064-261300-
EAST CENTRAL FLORIDA
  
CITY           SKY/WX    TMP DP  RH WIND       PRES   REMARKS
DAYTONA BEACH  PTCLDY    73  72  96 SW3       29.92R                  
JFK SPACE CTR  CLEAR     74  74  97 NW3       29.90R                  
TITUSVILLE     PTCLDY    75  73  94 W6        29.92R                  
PATRICK AFB    PTCLDY    78  74  87 NW8       29.90R                  
MELBOURNE      PTCLDY    77  74  90 NW5       29.90R                  
VERO BEACH     MOCLDY    76  74  93 N3        29.90R                  
FT PIERCE      CLOUDY    78  74  87 CALM      29.91R                  
STUART         CLOUDY    82  79  89 NE5       29.92R HX  93           
STATION/POSITION
28.9N   78.5W
$$
FLZ042-048>051-055-056-060-061-261300-
WEST CENTRAL FLORIDA
  
CITY           SKY/WX    TMP DP  RH WIND       PRES   REMARKS
BROOKSVILLE    CLEAR     71  70  96 CALM      29.93R                  
TAMPA          PTCLDY    79  73  82 CALM      29.92R                  
MACDILL AFB    CLEAR     74  74 100 CALM      29.91R                  
ST PETERSBURG  CLEAR     78  74  87 CALM      29.91R                  
ST PET-WHITTED CLEAR     81  75  82 N3        29.89R                  
SARASOTA       CLEAR     72  72 100 NE3       29.90R                  
STATION/POSITION
CEDAR KEY
28.5N   84.5W
VENICE
$$
FLZ062-065-066-069-070-075>078-261300-
SOUTHWEST FLORIDA AND KEYS
  
CITY           SKY/WX    TMP DP  RH WIND       PRES   REMARKS
PUNTA GORDA    MOCLDY    76  75  97 NE5       29.92R FOG              
FT MYERS       PTCLDY    78  75  90 CALM      29.90R                  
SOUTHWEST INTL PTCLDY    78  73  84 CALM      29.91R                  
NAPLES         CLOUDY    77  75  93 SE9       29.92R                  
MARATHON       PTCLDY    81  74  79 N7        29.89R                  
KEY WEST NAS   CLOUDY    91  78  65 SW5       29.89R HX 106           
KEY WEST INTL  CLOUDY    83  77  82 N3        29.90R HX  92           
STATION/POSITION
VENICE
SAND KEY
MOLASSES REEF
$$
FLZ067-068-071>074-261300-
SOUTHEAST FLORIDA 
  
CITY           SKY/WX    TMP DP  RH WIND       PRES   REMARKS
W PALM BEACH   CLOUDY    79  76  90 SW5       29.91R                  
POMPANO BEACH  RAIN      74  72  93 SW15      29.95R FOG              
FT LAUDER-EXEC HVY RAIN  73  73 100 VRB3      29.97R VSB 1            
FT LAUDERDALE  TSTM      79  78  97 NW3       29.94R FOG              
PEMBROKE PINES RAIN      75  74  96 NW8       29.96R                  
OPA LOCKA      RAIN      74  73  97 NW8       29.94R                  
MIAMI          LGT RAIN  76  76 100 NW7       29.93R                  
WEST KENDALL   CLOUDY    75  74  96 N6        29.93R                  
HOMESTEAD      CLOUDY    77  77 100 NW8       29.91R                  
STATION/POSITION
LAKE WORTH
FOWEY ROCKS
SETTLEMENT POINT
$$
  

148 
NZUS99 KTBW 261218
RWRBOY
FLORIDA MARINE WEATHER ROUNDUP
NATIONAL WEATHER SERVICE TAMPA BAY RUSKIN FL
800 AM EDT TUE SEP 26 2017
GMZ750-755-850-853-856-261300-
GULF OF MEXICO
  
STATION/POSITION TEMP    WIND        WAVE   SWELL
                 AIR SEA DIR/SP/G    HT/PER HT/PER
                 (F)     (DEG/KT/KT) (FT/S) (FT/S)
22SSE BILOXI     NOT AVBL
DAUPHIN ISLAND    78      70/ 10/ 11
CAPE SAN BLAS    NOT AVBL
65S MOBILE        82 83  190/  4/  6
56S PANAMA CITY   80 82   CALM  /  2   1/ 4
KEATON BEACH      72      70/  6/  7
CEDAR KEY         79     100/  7/  8
105WNW TAMPA      80 82   10/  6/  8   1
88W LONGBOAT KEY     83                1
VENICE            78 85   50/  4/  6
210W CAPTIVA     NOT AVBL
$$
GMZ033-261300-
KEYS
  
STATION/POSITION TEMP    WIND        WAVE   SWELL
                 AIR SEA DIR/SP/G    HT/PER HT/PER
                 (F)     (DEG/KT/KT) (FT/S) (FT/S)
CENTRAL GULF      83 84   60/  2/  4
375W OF MARCO    NOT AVBL
DRY TORTUGAS     NOT AVBL
SAND KEY          82
SOMBRERO KEY     NOT AVBL
LONG KEY         NOT AVBL
MOLASSES REEF     80 85  360/  8/  9
$$
AMZ550-555-261300-
WESTERN ATLANTIC OCEAN
  
STATION/POSITION TEMP    WIND        WAVE   SWELL
                 AIR SEA DIR/SP/G    HT/PER HT/PER
                 (F)     (DEG/KT/KT) (FT/S) (FT/S)
GRAYS REEF        76 80  330/ 10/ 12   4/12   3/12
ST AUGUSTINE      74 81  300/  4/  5
20E CANAVERAL     81 84  310/  8/ 10
120E CANAVERAL           310/ 12/ 14   8/11   7/11
PORT EVERGLADES   75     190/ 13/ 19
VIRGINIA KEY      77 85  280/  4/  8
LAKE WORTH        80 85  230/  4/  4
FOWEY ROCKS       79 85  290/ 12/ 13
SETTLEMENT POINT  83     290/  8/  9
$$